Location: Newark
(35.9031°N, 139.7175°E)
Time: 18:30:34
(UTC+00:00)

Courier 1B Rocket - Visible Passes

Search period start: 06 June 2020 00:00
Search period end: 16 June 2020 00:00
Orbit: 920 x 1202 km, 28.2° (Epoch: 05 June)

Date Brightness Start Highest point End Pass type
(mag) Time Alt. Az. Time Alt. Az. Time Alt. Az.
06 Jun 6.6 18:40:12 10° SSW 18:46:25 27° SSE 18:52:27 10° ESE visible
07 Jun 6.8 17:42:03 16° S 17:45:24 21° SSE 17:50:46 10° ESE visible
08 Jun 7.1 16:44:32 15° SSE 16:44:32 15° SSE 16:48:29 10° ESE visible
08 Jun 6.3 18:30:53 11° SW 18:37:22 34° SSE 18:44:00 10° ESE visible
09 Jun 6.5 17:33:20 22° S 17:36:18 27° SSE 17:42:34 10° ESE visible
10 Jun 6.7 16:35:46 21° SSE 16:35:46 21° SSE 16:40:48 10° ESE visible
10 Jun 6.1 18:22:06 14° SW 18:28:20 40° SSE 18:35:22 10° E visible
11 Jun 7.5 15:38:11 11° ESE 15:38:11 11° ESE 15:38:27 10° ESE visible
11 Jun 6.2 17:24:32 27° SSW 17:27:13 34° SSE 17:34:03 10° E visible
12 Jun 6.4 16:26:56 27° SSE 16:26:56 27° SSE 16:32:31 10° ESE visible
12 Jun 5.9 18:13:16 16° WSW 18:19:19 45° S 18:26:36 10° ESE visible
13 Jun 7.3 15:29:20 14° ESE 15:29:20 14° ESE 15:30:41 10° ESE visible
13 Jun 5.9 17:15:40 32° SSW 17:18:09 41° SSE 17:25:21 10° E visible
14 Jun 6.2 16:18:04 33° SSE 16:18:04 33° SSE 16:23:56 10° E visible
14 Jun 5.7 18:04:26 17° WSW 18:10:20 48° S 18:17:44 10° ESE visible
15 Jun 7.1 15:20:30 16° ESE 15:20:30 16° ESE 15:22:20 10° ESE visible
15 Jun 5.7 17:06:51 36° SSW 17:09:08 45° S 17:16:31 10° ESE visible
